Wind_Speed
34 31 36 36 29 27 23 26 20 20 21 22 20 19 26 24 21 27 33 29 29 26 21 21 22 24 23 23 22 23 21 23 21 19 18 19 19 17 15 14 15 17 19 19
22 24 25 29 26 28 23 24 24 27 24 21 20 23 19 20 22 22 23 22 17 22 22 25 26 29 26 23 23 23 21 21 20 19 18 18 18 16 16 16 17 19 20 21
24 23 26 29 28 25 26 27 25 23 21 22 19 20 19 18 21 20 24 23 23 22 25 26 28 29 25 22 21 23 23 21 18 19 18 17 16 16 17 18 19 21 22 23
22 23 24 29 28 27 30 30 26 18 21 18 19 5 15 16 18 23 22 24 26 25 25 24 25 27 23 19 20 21 24 17 18 18 17 17 16 17 18 20 22 24 27 30
16 20 24 28 30 25 27 20 22 21 25 19 18 7 15 18 19 21 20 21 22 22 17 15 15 20 19 20 21 23 22 16 17 18 17 17 18 20 23 25 28 30 33 36
19 15 20 24 27 25 21 18 21 19 21 5 14 21 10 19 18 15 18 18 17 15 15 13 17 18 19 22 23 21 17 16 18 19 20 21 22 23 26 28 31 34 37 39
13 9 16 12 22 25 25 25 6 3 4 5 12 16 23 14 13 15 14 14 14 15 11 11 17 20 22 22 19 16 16 18 20 22 24 25 27 29 31 33 35 35 36 37
3 3 5 11 12 21 25 26 10 6 5 4 8 10 9 26 19 17 17 16 13 10 9 9 13 17 18 16 16 16 16 19 21 24 27 30 31 33 32 32 35 37 39 42
4 8 11 12 17 16 19 15 13 3 2 3 6 9 9 18 23 20 17 15 11 9 8 9 10 12 15 16 16 17 18 20 23 26 28 29 29 31 34 37 40 43 45 46
4 3 8 8 9 18 12 16 7 5 3 3 4 7 11 18 24 20 14 12 11 10 9 9 12 14 15 16 18 19 21 24 28 29 29 29 31 34 37 41 44 45 45 44
2 5 3 7 11 12 10 17 10 6 4 4 2 6 12 14 11 10 10 10 9 9 11 12 13 15 18 20 21 24 27 27 27 27 28 31 34 38 43 44 43 42 42 44
2 6 5 8 8 13 16 11 14 6 4 4 1 4 6 7 8 9 7 7 8 11 12 13 18 19 20 22 24 25 26 26 28 31 34 36 40 44 42 40 40 41 41 40
5 3 3 2 6 12 13 14 15 19 12 6 3 4 7 10 11 11 8 9 11 12 14 19 19 20 21 23 24 26 28 30 32 35 39 42 43 41 39 38 37 37 37 39
5 7 5 6 3 4 11 15 14 13 10 12 10 11 12 12 12 10 10 12 13 17 18 19 20 22 24 25 26 27 30 32 35 39 42 41 39 38 36 35 35 37 38 40
8 7 7 6 3 3 2 5 17 21 20 14 14 11 8 7 9 9 11 15 18 18 20 21 22 24 26 27 29 32 34 35 39 42 39 37 36 35 35 36 37 38 39 40
11 6 8 9 8 10 12 11 10 13 14 18 14 13 11 8 11 14 16 16 18 21 23 24 26 27 28 31 33 34 36 38 42 39 37 35 34 33 34 35 35 35 37 38
9 10 7 4 6 6 10 13 16 16 16 14 19 19 19 17 14 13 14 16 20 23 25 26 28 30 32 33 35 37 39 42 37 34 33 32 31 32 33 33 34 36 38 38
7 8 6 3 3 2 5 5 6 9 12 14 13 12 10 10 11 12 14 17 20 24 25 28 31 33 36 37 38 41 41 36 33 31 29 29 30 31 31 33 35 38 38 37
9 9 4 3 5 10 12 13 12 12 12 13 10 10 9 10 11 12 17 19 21 23 26 29 32 34 35 37 40 38 34 32 29 28 28 28 29 30 31 33 36 36 35 37
12 12 10 5 3 4 3 4 4 5 11 10 9 7 8 12 15 16 21 20 20 23 26 29 32 34 36 37 34 32 29 28 28 27 26 27 29 31 33 35 34 34 37 38
8 11 15 14 7 8 11 11 8 6 5 5 5 8 11 14 18 21 21 21 22 23 24 28 31 32 31 31 30 28 27 27 25 26 27 28 30 31 33 33 33 35 38 39
5 5 6 8 7 8 6 6 9 6 7 9 11 11 13 18 22 23 23 23 23 23 26 27 27 28 28 27 27 25 25 25 25 26 27 28 30 32 32 32 34 36 38 39
9 11 7 8 5 7 7 9 11 12 14 16 15 15 18 21 23 24 23 22 21 23 24 25 26 26 26 25 25 24 24 25 26 27 28 29 31 31 31 32 34 37 38 37
15 15 17 17 11 10 13 15 15 16 18 20 20 20 21 23 24 23 21 21 22 23 23 24 26 24 23 24 24 24 24 26 27 28 29 30 29 29 30 32 35 37 36 36
15 16 18 22 18 18 17 18 20 20 19 19 19 21 23 22 22 20 20 20 20 21 23 24 23 21 23 23 23 23 24 25 28 28 28 27 27 28 30 33 34 35 35 34
22 21 21 22 17 18 19 17 15 14 16 20 21 23 22 21 19 19 18 19 20 21 23 21 19 22 22 22 23 24 24 26 27 26 26 26 27 28 31 34 34 31 33 29
Wind_Direction
189 197 203 202 205 207 209 208 207 212 224 234 238 233 228 224 233 241 253 253 263 271 268 265 269 274 273 279 288 293 287 280 277 281 292 296 295 290 282 274 271 270 273 280
192 209 204 202 201 207 209 212 219 224 228 227 229 237 250 227 245 250 252 250 242 252 261 268 271 270 271 278 291 301 301 289 279 279 284 290 294 290 282 277 272 271 274 278
200 208 200 205 199 199 206 218 225 229 221 212 229 246 242 238 239 240 237 239 247 258 266 270 269 263 266 278 293 302 305 291 273 276 284 293 293 288 285 280 273 273 277 283
203 205 208 206 210 211 222 221 223 210 207 202 217 238 240 240 230 239 242 246 246 264 270 265 260 254 265 279 285 293 296 279 267 275 280 288 286 284 281 282 286 290 294 297
201 206 202 206 212 212 228 232 227 221 212 208 202 214 245 229 236 241 242 242 247 264 264 272 258 251 258 269 274 281 286 268 266 270 281 291 290 290 291 293 295 296 295 293
216 204 197 213 216 218 221 202 199 209 185 216 200 211 241 237 240 245 242 242 240 267 272 262 241 235 246 257 273 284 279 269 273 280 285 288 287 285 284 285 287 287 289 290
209 212 208 197 210 216 212 183 120 191 206 214 214 219 233 249 238 231 239 243 259 274 258 236 236 236 243 258 268 274 274 273 276 281 285 288 288 288 287 285 286 286 287 289
61 324 241 196 193 197 183 187 184 173 185 214 197 213 238 228 229 229 235 245 260 255 250 238 229 236 248 260 273 279 278 279 282 285 286 285 285 285 285 284 286 288 290 289
240 219 206 192 190 179 186 184 198 116 138 149 199 226 229 211 214 218 225 236 238 242 245 240 243 251 259 267 271 271 273 275 275 277 278 277 277 280 287 293 295 295 292 289
319 324 200 191 177 208 202 198 196 203 152 223 251 241 220 225 217 214 218 219 224 228 236 240 244 250 258 263 266 272 278 281 280 278 277 279 284 289 294 296 296 293 290 290
317 320 294 194 205 194 184 199 221 234 238 166 187 249 237 233 233 212 200 219 222 231 236 238 250 262 270 273 278 283 284 283 280 277 277 282 288 293 296 296 293 292 290 289
60 330 336 223 229 218 221 216 205 209 216 220 211 253 191 168 175 204 218 212 237 246 250 262 280 281 279 282 284 280 277 275 276 281 288 292 296 299 297 294 291 291 291 291
241 254 317 281 242 223 225 226 231 234 247 242 183 249 232 220 211 221 237 254 265 259 272 285 285 287 287 287 286 287 288 291 295 299 301 302 302 300 297 295 294 292 291 292
280 243 244 256 289 233 225 229 224 227 232 241 249 266 249 236 234 246 258 275 291 299 297 296 296 295 296 297 295 294 296 299 302 304 304 302 300 297 296 295 295 296 298 299
244 243 243 242 267 265 248 230 227 236 245 245 258 241 251 249 251 263 278 285 292 291 290 295 297 297 296 296 294 294 298 300 302 304 302 299 296 297 299 299 299 299 300 301
239 245 242 248 248 252 256 253 235 233 238 238 240 250 264 232 242 259 275 278 282 286 293 298 299 297 295 292 292 293 296 301 305 303 300 299 300 300 297 297 299 301 303 305
235 229 240 245 225 263 273 248 244 246 249 250 250 263 264 260 261 263 275 282 286 287 289 294 298 293 288 289 291 295 300 305 302 299 298 298 298 298 300 302 303 307 308 306
242 227 230 254 235 253 254 234 229 238 241 245 252 258 255 255 262 270 277 287 286 283 289 293 288 284 286 288 293 301 305 301 299 300 302 302 302 303 304 305 308 309 309 306
230 227 239 252 236 279 265 250 252 264 258 240 246 252 258 262 262 275 295 292 288 287 284 282 279 281 286 294 301 302 300 304 308 308 307 304 304 305 308 310 311 311 308 309
232 232 232 234 257 229 254 218 237 242 258 247 238 248 266 272 279 294 291 292 286 281 281 278 280 285 293 299 300 301 307 310 310 310 309 309 309 312 313 312 313 311 313 314
231 240 239 242 245 270 263 244 244 234 276 195 257 270 280 283 285 290 294 294 290 289 287 284 287 295 300 301 303 308 309 310 312 311 312 310 310 312 312 315 313 314 317 317
246 248 243 224 229 267 266 238 228 256 235 277 289 286 287 283 288 296 300 296 294 290 287 291 300 303 303 306 307 311 313 312 311 311 310 310 312 313 315 315 315 318 319 318
254 252 253 236 253 273 271 280 280 267 268 284 288 286 291 293 298 300 297 297 293 292 300 306 306 310 312 312 315 317 315 314 316 315 314 313 314 315 316 316 319 320 320 320
265 269 265 278 284 282 270 273 272 273 274 278 282 287 293 298 298 298 299 297 299 305 308 310 314 313 314 317 316 315 317 319 317 316 315 313 314 315 316 319 322 321 321 323
271 272 274 284 284 287 278 277 276 276 277 276 277 289 297 300 300 297 296 299 306 308 311 314 314 315 317 317 318 318 318 315 315 315 316 316 316 319 320 324 325 325 326 326
278 279 275 287 289 270 276 277 271 274 275 280 288 299 302 300 297 298 304 308 309 312 313 314 312 315 320 323 321 319 315 315 317 317 319 318 321 323 324 326 328 328 326 326
Height
3090 3093 3094 3100 3107 3113 3118 3121 3125 3127 3130 3133 3134 3137 3139 3141 3143 3144 3144 3144 3145 3145 3143 3143 3144 3145 3147 3148 3149 3148 3148 3148 3148 3147 3146 3145 3144 3142 3142 3142 3142 3141 3141 3140
3091 3091 3097 3102 3108 3112 3116 3119 3122 3125 3127 3130 3132 3132 3136 3137 3137 3138 3138 3140 3140 3141 3140 3140 3140 3139 3142 3145 3144 3143 3143 3142 3144 3143 3142 3141 3140 3138 3138 3139 3138 3138 3137 3136
3089 3093 3098 3101 3106 3109 3113 3115 3118 3122 3124 3126 3129 3130 3130 3131 3131 3132 3134 3135 3136 3137 3137 3136 3135 3137 3138 3141 3140 3139 3138 3138 3138 3138 3137 3137 3136 3135 3134 3134 3133 3132 3131 3130
3090 3094 3097 3100 3104 3108 3108 3112 3117 3119 3121 3123 3126 3126 3124 3124 3125 3126 3128 3129 3130 3131 3132 3131 3131 3132 3135 3137 3137 3136 3135 3134 3134 3133 3133 3132 3131 3130 3130 3129 3128 3127 3125 3123
3090 3091 3094 3097 3100 3105 3106 3110 3114 3117 3119 3120 3122 3125 3119 3120 3120 3121 3123 3124 3126 3127 3127 3126 3126 3129 3131 3132 3133 3132 3130 3130 3130 3129 3128 3127 3126 3125 3124 3122 3121 3120 3118 3115
3088 3090 3092 3095 3098 3102 3105 3108 3112 3115 3116 3118 3117 3118 3115 3114 3116 3117 3119 3121 3123 3123 3123 3123 3124 3126 3127 3127 3127 3126 3125 3125 3124 3124 3123 3123 3122 3121 3120 3119 3117 3114 3111 3108
3086 3088 3091 3092 3094 3098 3101 3104 3112 3119 3117 3114 3112 3115 3111 3111 3112 3115 3116 3118 3119 3119 3119 3120 3121 3122 3123 3123 3122 3121 3120 3120 3119 3119 3118 3117 3116 3114 3113 3111 3109 3106 3103 3099
3087 3093 3091 3091 3093 3095 3098 3101 3104 3109 3112 3108 3109 3107 3105 3107 3110 3111 3113 3114 3115 3116 3116 3117 3117 3118 3120 3120 3120 3119 3118 3116 3116 3114 3113 3111 3109 3107 3105 3102 3100 3098 3095 3091
3090 3090 3090 3091 3093 3094 3096 3098 3101 3101 3103 3104 3104 3103 3102 3103 3105 3108 3110 3111 3112 3113 3113 3114 3116 3116 3116 3116 3116 3116 3115 3114 3112 3110 3108 3105 3102 3100 3097 3094 3090 3087 3082 3078
3090 3087 3088 3090 3092 3094 3094 3098 3100 3100 3104 3106 3101 3100 3097 3098 3101 3105 3107 3108 3109 3110 3111 3113 3113 3113 3113 3113 3112 3111 3110 3108 3106 3104 3101 3098 3096 3092 3088 3084 3080 3075 3070 3065
3090 3090 3090 3090 3091 3093 3094 3095 3097 3099 3100 3100 3103 3097 3095 3097 3100 3104 3106 3107 3107 3109 3109 3110 3110 3111 3110 3109 3108 3106 3103 3101 3098 3096 3095 3092 3089 3084 3079 3074 3069 3064 3059 3054
3090 3089 3088 3088 3089 3091 3093 3094 3096 3097 3098 3097 3096 3096 3095 3097 3099 3102 3104 3105 3106 3106 3107 3108 3108 3107 3106 3104 3102 3100 3097 3094 3092 3089 3086 3083 3079 3074 3070 3065 3059 3053 3048 3043
3090 3090 3090 3089 3091 3090 3090 3091 3093 3094 3095 3095 3096 3095 3095 3096 3097 3099 3101 3102 3103 3104 3104 3103 3101 3100 3099 3098 3095 3092 3089 3086 3083 3079 3076 3071 3067 3061 3057 3052 3047 3043 3038 3034
3089 3088 3090 3090 3088 3088 3088 3089 3091 3092 3093 3093 3092 3092 3092 3093 3094 3096 3098 3098 3098 3097 3096 3096 3095 3094 3091 3088 3085 3083 3081 3078 3075 3071 3066 3061 3056 3051 3046 3042 3037 3032 3027 3023
3090 3089 3089 3089 3088 3087 3087 3087 3088 3089 3091 3091 3091 3090 3090 3091 3092 3093 3093 3093 3093 3093 3092 3091 3090 3087 3084 3081 3079 3077 3074 3071 3066 3062 3056 3051 3046 3042 3036 3031 3027 3022 3017 3012
3089 3089 3088 3087 3087 3086 3086 3086 3086 3087 3087 3087 3087 3087 3088 3088 3088 3089 3090 3090 3089 3088 3087 3085 3082 3081 3079 3076 3073 3070 3067 3062 3057 3051 3047 3041 3037 3033 3028 3023 3019 3013 3008 3002
3088 3087 3087 3086 3084 3084 3084 3082 3082 3083 3083 3085 3084 3085 3085 3086 3087 3087 3086 3085 3084 3082 3080 3078 3076 3074 3071 3068 3066 3063 3059 3054 3047 3042 3038 3034 3029 3025 3020 3015 3010 3004 2999 2993
3086 3086 3086 3085 3084 3085 3079 3079 3079 3079 3080 3080 3080 3080 3081 3082 3083 3082 3082 3081 3079 3077 3075 3073 3070 3068 3065 3062 3058 3054 3049 3043 3038 3034 3029 3025 3021 3016 3011 3007 3002 2996 2990 2984
3084 3085 3085 3084 3082 3079 3077 3077 3077 3077 3077 3077 3078 3078 3079 3078 3079 3079 3078 3076 3075 3073 3070 3068 3065 3062 3058 3055 3051 3045 3039 3035 3030 3026 3022 3018 3013 3009 3003 2998 2993 2988 2981 2976
3082 3083 3084 3082 3082 3079 3075 3074 3075 3075 3074 3074 3076 3076 3076 3076 3075 3075 3072 3071 3069 3067 3065 3062 3059 3056 3052 3047 3041 3036 3031 3027 3023 3020 3015 3011 3006 3001 2995 2990 2985 2979 2973 2966
3080 3080 3080 3080 3079 3075 3073 3073 3074 3076 3077 3072 3073 3073 3072 3072 3071 3069 3067 3065 3062 3060 3058 3055 3052 3049 3044 3038 3033 3029 3025 3020 3017 3012 3007 3003 2999 2994 2988 2983 2977 2971 2964 2957
3078 3078 3076 3076 3077 3074 3070 3071 3072 3072 3070 3070 3070 3069 3068 3067 3065 3063 3060 3057 3055 3054 3051 3048 3045 3040 3036 3031 3026 3023 3019 3014 3010 3006 3001 2997 2992 2987 2981 2976 2970 2963 2956 2949
3075 3074 3074 3075 3072 3070 3070 3070 3069 3069 3068 3067 3066 3065 3063 3061 3059 3056 3053 3052 3050 3048 3044 3041 3037 3033 3028 3024 3020 3017 3012 3008 3004 2999 2994 2990 2985 2980 2974 2969 2962 2955 2949 2941
3070 3070 3070 3070 3068 3067 3066 3066 3065 3064 3063 3063 3062 3060 3059 3056 3053 3050 3048 3046 3044 3041 3038 3034 3030 3027 3023 3019 3016 3011 3007 3003 2997 2993 2988 2983 2978 2973 2968 2962 2956 2948 2941 2934
3067 3067 3066 3064 3064 3063 3062 3061 3060 3060 3059 3058 3057 3055 3053 3050 3048 3046 3044 3042 3039 3036 3032 3029 3026 3022 3018 3014 3010 3006 3002 2997 2992 2987 2982 2977 2972 2967 2962 2956 2949 2942 2935 2927
3061 3062 3061 3058 3060 3058 3057 3056 3056 3056 3054 3052 3051 3049 3047 3045 3043 3041 3039 3036 3034 3031 3027 3024 3020 3017 3013 3010 3005 3001 2997 2992 2987 2982 2977 2972 2967 2961 2956 2949 2944 2937 2929 2922